STARLINK-6281, 56410

Orbit data source: Space-Track

STARLINK-6281, 56410 is a payload satellite owned by SpaceX/Seattle (US) in LEO that was launched on Thu, 04 May 2023 UTC via an FALCON 9 launch vehicle from the Air Force Eastern Test Range (AFETR). Payload-class satellites include a variety of spacecraft equipped with specific instruments for various scientific and technological missions. These include communications satellites like Starlink; space stations such as the ISS; scientific satellites like the Hubble; Earth observation satellites from companies like Planet Labs, Umbra, and HawkEye 360; GPS; miniature CubeSats for education and research; and military/defense satellites.

Loading next visibility...
Identifier
56410, 2023-061AN
Orbit
LEO
Country
Flag of USUS
Related business
Manufacturer
SpaceX/Seattle
Mission
Partially operational Commercial Communications
Bus & Motor
STARLINK, Unknown motor
Mass
305 kg wet, ~290 kg dry
Launch date (UTC)
2023-05-04 (3 years ago)
Launch vehicle
FALCON 9
Launch site
Air Force Eastern Test Range (AFETR)
Object type
Payload
Rocket body
Debris
Shape & HBR
Box + 1 Pan, 10.1 m
Radar Cross Section
11.087 m², Large (>1 m²)

Expand to show TLE details & history
Last TLE update: 2 days ago

TLE from 2 days ago
0 STARLINK-6281
1 56410U 23061AN  26171.44034161  .00000483  00000-0  27053-4 0  9994
2 56410  42.9934 326.3464 0001097 249.9760 110.0973 15.27581290172596
Epoch: 2026-06-20T10:34Z
TLE epoch observation values (Epoch: 2026-06-20T10:34:05.515Z)
Latitude
-0.00004°
Longitude
-100.83155°
Altitude
483.079 km
Speed
7.626 km/s
True Right ascension
21h 45m 23s
True Declination
0° 00' 00"
Sunlit
Object was in full shadow at epoch
Visualization orbit readout
Latitude
Unknown
Longitude
Unknown
Altitude
Unknown
Speed
Unknown
Apparent Right ascension
Unknown
Apparent Declination
Unknown
Sunlit
N/A
Visualization observer readout
Local Sidereal Time
21:52:18
Azimuth
Unknown
Elevation
Unknown
Doppler factor
Unknown
Orbital elements
Apogee altitude
485.744 km
Perigee altitude
484.239 km
Semi-major axis
6,863.129 km
Eccentricity
0.00011
Inclination
42.9934°
RAAN
326.3464°
Arg. of periapsis
249.976°
True anomaly
110.1091°
Mean anomaly
110.0973°
Eccentric anomaly
110.1032°
Mean motion
3.81733 °/min
Orbital period
94.31 mins
BSTAR
0.000027053
Loading maneuver chart data...
Computing Atmospheric mass density...

Documentation

Showing up to 5 results
|